User: anonymous   Login
Location: Caltech
(34.1382°N, 118.1253°W)
Time: 04:30:32
(UTC-07:00)
Language:

Spot 4 Rocket - Orbit

View from above orbital plane
View from above orbital plane
View from above satellite
View from above satellite

Ground track
Ground track

The orbit data is extracted from the following two-line orbital elements,

1 25261U 98017B   15115.49669560  .00000611  00000-0  23778-3 0  9997
2 25261 098.4508 066.0163 0002071 247.1055 249.1391 14.33269351892744
Epoch (UTC): 25 April 2015 11:55:14
Eccentricity: 0.0002071
inclination: 98.4508°
perigee height: 779 km
apogee height: 782 km
right ascension of ascending node: 66.0163°
argument of perigee: 247.1055°
revolutions per day: 14.33269351
mean anomaly at epoch: 249.1391°
orbit number at epoch: 89274

The dashed part of the orbit path shows where the satellite is in the earth's shadow,  

DLR